Voltar ao catálogo

GLOBALSTAR M056

AtivoComunicaçõesLEO
NORAD 25945·PAYLOAD·🇺🇸 United States

Lançado Oct 18, 1999 de Baikonur Cosmodrome

Loading…

Próximas Passagens (próximas 24 horas)

TLE

AtualizadoSource: Space-Track

Época: Sep 14, 2026, 09:27 UTC

1 25945U 99058C   26257.39401480 -.00000038  00000-0  57806-3 0  9998
2 25945  51.9971  48.6904 0001142  30.2687 344.5374 12.04789425217376

Acompanhe GLOBALSTAR M056 em tempo real com AllMySat

Download on the App Store